Wind_Speed
61 60 59 59 58 58 58 57 56 55 55 54 52 51 50 48 47 47 46 45 44 44 44 46 48 49 48 47 45 42 41 41 39 38 38 36 33 32 30 27 25 27
62 62 61 61 61 61 61 61 60 59 57 56 55 54 52 51 49 48 47 46 46 45 45 46 48 50 50 49 48 45 43 43 42 40 40 39 37 35 33 30 27 27
62 62 62 62 62 62 62 62 62 62 61 59 58 56 55 54 52 50 49 48 48 47 47 48 49 51 52 50 50 49 46 44 43 42 42 41 40 39 36 33 30 29
63 63 63 63 63 62 62 62 62 62 63 63 62 61 59 57 55 54 52 51 50 49 49 50 51 52 54 53 52 51 49 46 45 45 44 42 42 41 39 36 34 30
66 66 66 65 65 64 64 64 64 64 65 66 66 66 65 62 59 57 55 53 52 51 51 52 52 53 55 55 54 53 52 49 47 46 45 44 43 42 41 40 37 34
69 70 69 69 68 68 67 67 67 66 67 68 68 68 67 66 63 60 57 55 54 53 53 53 54 54 56 57 56 54 53 52 49 48 47 45 44 44 44 43 39 36
72 73 73 73 72 72 72 71 70 69 69 69 69 69 67 66 64 62 59 57 56 55 55 55 55 56 56 58 58 56 54 54 52 51 49 47 46 46 46 44 42 40
74 74 75 76 76 76 76 75 74 73 72 72 71 70 70 68 66 64 62 60 58 57 57 57 58 58 58 59 60 58 56 56 55 53 52 50 49 48 48 46 45 44
75 76 76 78 79 79 80 80 79 78 77 76 74 73 73 73 71 70 68 65 63 60 59 59 60 60 60 60 62 61 59 57 57 56 55 53 52 51 50 49 48 47
76 77 79 80 81 82 81 81 80 79 78 76 75 73 71 71 70 70 69 67 66 64 61 59 60 61 62 62 63 64 62 59 58 58 57 56 55 54 53 52 50 49
78 79 80 80 81 80 80 79 78 78 76 74 72 70 67 65 65 64 64 65 64 64 62 61 60 61 61 62 63 65 65 62 60 60 58 57 58 57 56 55 53 51
78 79 79 79 79 79 78 77 76 75 74 72 71 68 66 64 62 62 62 62 62 62 62 62 62 62 62 61 62 64 65 64 63 62 61 59 59 60 59 57 56 53
77 78 78 78 77 76 76 75 74 73 73 72 70 69 67 65 63 62 62 62 61 61 62 62 63 63 63 63 63 63 65 65 64 63 63 61 61 62 62 60 59 56
77 77 76 75 74 73 73 73 72 72 71 71 71 70 68 67 65 64 62 61 60 60 61 62 62 62 63 64 64 65 66 66 66 65 65 63 62 63 64 63 61 59
75 74 73 72 72 72 72 72 71 71 71 71 71 71 70 70 69 68 66 63 61 60 60 61 62 62 61 62 64 66 67 67 67 66 66 65 64 64 66 65 64 62
72 71 70 70 70 70 70 70 70 71 71 71 72 73 73 73 74 73 72 70 67 64 62 62 62 62 61 62 63 65 66 67 68 66 66 66 65 65 67 67 66 64
67 67 67 67 67 67 68 69 70 71 73 73 74 75 76 77 79 79 78 77 74 71 67 65 64 62 62 62 63 64 65 66 67 66 66 66 66 66 67 68 68 66
64 64 64 64 64 66 68 70 72 73 74 74 75 75 76 77 78 80 81 81 80 78 74 71 68 65 64 64 64 64 65 66 66 66 66 66 67 67 68 68 69 68
61 61 62 63 66 68 70 71 72 72 72 71 70 69 67 65 64 66 69 73 77 79 78 76 73 70 68 66 65 65 66 66 67 67 67 66 67 67 68 69 69 69
59 60 62 65 67 68 69 69 68 67 66 64 62 59 56 54 52 52 54 58 63 69 74 77 77 75 73 70 68 67 68 67 67 68 68 67 67 67 68 69 70 70
59 61 64 66 66 66 65 62 59 56 53 51 50 50 49 49 48 47 48 50 53 57 63 70 74 76 77 74 71 70 70 70 69 69 69 69 68 68 68 69 70 70
60 64 66 66 63 59 55 50 46 44 43 43 44 44 45 45 45 46 47 47 48 49 53 59 65 71 75 77 75 73 72 73 72 70 70 70 69 68 68 68 69 70
63 66 64 59 53 48 43 40 39 41 42 44 45 45 44 42 42 44 45 46 47 48 48 51 55 61 68 75 78 77 76 76 75 73 71 70 69 68 67 68 68 69
65 61 54 48 44 40 37 37 40 44 46 48 49 48 46 44 43 43 43 44 45 47 47 48 49 52 58 67 74 79 80 79 78 76 74 72 70 69 68 68 68 68
58 49 43 41 38 36 36 40 45 49 50 49 50 50 48 46 44 42 40 40 42 44 45 47 48 48 51 58 66 74 80 82 81 79 77 74 72 70 69 68 68 69
47 40 38 37 36 38 42 47 50 51 49 46 45 45 43 43 42 41 39 38 39 41 41 44 47 48 49 51 56 65 75 82 84 83 79 76 74 72 70 69 69 70
Wind_Direction
296 295 294 293 292 292 291 291 291 291 290 290 289 288 287 286 284 283 280 277 275 272 270 269 270 271 271 270 267 262 259 259 258 258 257 255 253 254 254 253 251 251
295 295 294 294 293 293 292 291 291 290 290 289 288 288 287 285 284 282 279 276 272 269 266 265 265 267 268 268 266 262 258 256 255 254 254 253 251 251 251 248 246 246
293 293 292 292 292 292 292 291 291 290 289 288 287 286 286 285 283 281 279 276 272 268 264 262 262 263 265 265 265 262 257 254 252 252 251 251 250 249 249 247 245 244
292 291 291 291 291 291 291 291 290 289 288 287 287 286 285 284 283 281 278 276 272 269 265 262 260 260 261 263 262 260 257 252 250 249 249 248 248 247 247 247 247 246
292 292 292 292 292 291 291 289 289 288 287 287 286 285 285 284 283 282 279 275 272 269 266 263 260 258 258 259 260 258 255 251 247 246 246 246 246 245 245 246 247 247
294 294 293 293 292 291 290 289 288 287 286 286 286 286 285 285 283 281 278 275 271 269 266 264 261 258 256 256 257 255 252 249 245 244 244 243 243 244 243 243 243 243
295 294 294 293 292 290 289 288 287 286 286 286 286 286 285 284 282 280 277 274 270 267 265 263 260 258 255 254 254 253 250 247 244 242 242 241 241 242 242 241 240 240
294 294 293 292 291 290 289 288 287 286 286 286 285 285 285 283 281 279 276 273 270 267 263 261 259 257 255 252 251 251 248 246 244 241 240 240 239 240 241 239 238 238
294 294 293 292 291 291 290 289 289 288 287 286 286 285 284 283 281 279 276 273 269 266 262 259 256 254 253 251 250 249 247 245 243 242 240 238 238 238 239 238 236 236
294 294 293 292 291 291 290 290 290 289 289 288 288 286 284 282 280 278 276 273 269 265 261 258 255 253 251 249 248 248 247 245 243 242 240 238 237 237 237 237 235 233
294 293 292 291 291 291 291 291 291 291 290 289 288 286 284 281 279 276 274 272 269 265 261 257 254 253 251 249 247 247 247 246 244 242 241 238 237 236 235 235 235 232
293 292 292 292 293 293 293 293 292 291 290 289 287 285 283 280 278 276 273 271 269 266 262 257 254 253 251 249 247 246 247 247 245 242 241 238 236 235 234 233 233 231
294 294 294 294 294 294 294 293 291 290 289 287 285 283 281 278 275 273 271 269 267 264 262 258 254 251 249 248 247 246 246 246 244 242 240 237 235 234 232 231 230 230
295 295 295 295 295 293 292 291 290 288 287 285 283 281 279 277 274 270 267 265 263 261 259 256 253 249 246 245 244 244 244 244 243 241 238 236 233 232 231 230 228 227
295 295 295 294 293 292 290 289 288 287 286 285 283 282 280 278 275 272 268 264 260 258 255 253 251 248 244 241 240 239 239 240 240 239 237 234 231 230 230 229 227 224
295 294 293 292 291 291 290 290 290 289 289 288 287 285 283 280 277 274 270 266 261 257 253 251 249 246 243 240 237 235 235 236 236 236 235 233 230 227 227 227 226 223
294 293 292 292 292 293 293 293 293 293 292 291 289 287 284 282 278 275 271 267 263 258 253 250 247 245 242 239 236 234 233 233 233 232 232 231 229 226 225 225 224 223
294 294 294 294 295 295 295 294 294 293 291 290 288 287 285 283 279 274 269 266 262 258 254 249 246 244 241 238 236 234 232 231 231 230 229 228 227 225 223 223 222 221
296 296 297 297 296 296 296 295 294 293 292 291 289 288 288 287 282 275 269 265 261 258 253 249 245 242 240 237 235 234 233 231 230 229 228 226 225 224 222 221 220 220
298 299 300 300 299 299 298 297 296 295 293 292 290 289 290 290 287 280 273 268 264 259 255 249 244 241 239 237 234 233 234 233 230 229 228 226 224 222 221 220 219 218
301 303 304 304 303 302 301 300 299 298 298 297 295 293 291 289 286 282 276 270 266 261 256 251 246 241 238 236 234 232 233 233 231 229 227 225 223 222 220 219 218 218
305 306 307 306 305 305 304 304 303 303 304 303 301 299 297 293 288 283 278 272 268 264 258 253 248 244 239 236 234 232 231 232 231 228 227 226 223 221 220 219 218 218
308 309 309 309 308 308 307 306 305 305 305 304 302 301 300 297 292 287 281 275 270 265 261 255 249 245 241 237 233 231 231 230 229 227 226 225 224 222 220 219 218 218
311 311 311 311 310 307 304 303 304 304 303 302 301 300 299 296 292 289 285 280 273 266 260 256 250 246 243 239 233 230 230 229 229 227 225 224 223 222 221 219 219 218
314 314 313 312 308 302 300 303 305 305 304 301 299 298 297 294 290 287 283 279 276 269 261 255 250 245 242 240 235 230 228 228 228 226 224 223 222 221 220 219 219 218
316 316 314 310 305 302 304 306 307 307 306 304 300 297 295 292 289 286 281 275 273 271 265 256 249 243 239 238 236 232 228 227 226 226 223 222 221 220 220 219 219 219
Height
5749 5748 5747 5746 5745 5744 5743 5742 5741 5741 5740 5739 5739 5738 5738 5738 5738 5738 5738 5739 5739 5740 5739 5738 5737 5737 5737 5738 5738 5739 5741 5742 5744 5745 5745 5746 5747 5747 5747 5749 5749 5750
5742 5740 5739 5737 5736 5735 5733 5732 5731 5731 5730 5730 5730 5729 5729 5729 5729 5730 5730 5731 5731 5732 5732 5732 5731 5730 5730 5731 5731 5732 5734 5736 5737 5739 5740 5741 5742 5742 5743 5744 5744 5745
5736 5734 5733 5731 5729 5727 5725 5724 5722 5721 5720 5720 5720 5720 5720 5721 5721 5722 5722 5722 5723 5724 5724 5724 5724 5724 5723 5723 5723 5725 5727 5729 5730 5732 5734 5735 5736 5736 5737 5738 5739 5739
5728 5727 5725 5723 5721 5719 5718 5716 5714 5712 5710 5709 5709 5710 5710 5711 5712 5713 5713 5714 5714 5715 5715 5716 5716 5716 5716 5716 5716 5717 5719 5721 5723 5724 5726 5729 5730 5730 5731 5732 5733 5735
5718 5717 5715 5713 5711 5710 5708 5706 5704 5702 5701 5699 5699 5698 5699 5701 5702 5703 5703 5704 5705 5706 5706 5707 5708 5708 5708 5708 5708 5709 5711 5713 5716 5717 5719 5722 5723 5724 5725 5726 5728 5731
5707 5705 5703 5702 5700 5699 5697 5696 5694 5692 5690 5689 5688 5687 5687 5688 5690 5691 5693 5693 5694 5695 5696 5697 5698 5699 5699 5699 5700 5701 5703 5705 5707 5709 5711 5714 5716 5717 5718 5720 5723 5726
5697 5694 5692 5690 5689 5687 5686 5685 5684 5682 5680 5678 5677 5676 5675 5676 5677 5679 5681 5682 5683 5684 5685 5686 5687 5688 5689 5690 5690 5692 5694 5696 5699 5701 5703 5706 5708 5710 5711 5714 5717 5719
5687 5684 5682 5679 5677 5675 5673 5672 5670 5670 5669 5667 5666 5665 5663 5663 5664 5665 5667 5669 5671 5673 5674 5675 5676 5677 5678 5680 5681 5683 5685 5687 5690 5692 5695 5698 5700 5702 5704 5707 5710 5713
5677 5674 5671 5667 5664 5662 5660 5657 5655 5654 5654 5653 5653 5653 5651 5650 5650 5650 5652 5654 5657 5660 5661 5663 5664 5666 5667 5669 5671 5672 5675 5678 5680 5683 5686 5689 5692 5695 5697 5700 5703 5706
5666 5663 5659 5655 5652 5649 5647 5644 5642 5640 5639 5638 5638 5638 5638 5637 5636 5636 5636 5638 5641 5645 5648 5650 5652 5653 5655 5658 5660 5661 5664 5667 5671 5673 5677 5680 5684 5686 5689 5692 5695 5699
5655 5651 5647 5643 5640 5637 5635 5632 5630 5628 5626 5625 5624 5624 5624 5623 5623 5623 5623 5624 5626 5630 5633 5636 5639 5641 5643 5646 5648 5650 5653 5656 5660 5663 5667 5671 5675 5678 5680 5683 5687 5691
5644 5640 5636 5632 5628 5625 5623 5620 5618 5616 5614 5612 5611 5610 5611 5611 5611 5611 5611 5611 5613 5615 5618 5621 5625 5627 5631 5634 5637 5639 5641 5645 5649 5653 5657 5661 5665 5668 5672 5675 5679 5683
5632 5628 5624 5620 5617 5614 5611 5608 5606 5604 5602 5600 5599 5598 5598 5598 5598 5598 5599 5599 5600 5602 5604 5606 5610 5613 5617 5621 5625 5627 5630 5633 5637 5642 5646 5650 5655 5659 5662 5667 5671 5675
5621 5617 5613 5610 5606 5603 5600 5597 5595 5593 5590 5588 5587 5586 5585 5585 5585 5585 5586 5587 5588 5590 5591 5593 5595 5599 5604 5608 5612 5615 5618 5621 5625 5630 5634 5639 5644 5649 5653 5657 5662 5667
5611 5607 5603 5599 5595 5592 5589 5586 5583 5581 5579 5577 5575 5573 5572 5572 5571 5571 5572 5574 5576 5577 5578 5580 5582 5585 5590 5594 5598 5602 5605 5608 5612 5617 5622 5627 5633 5639 5643 5648 5653 5658
5601 5597 5593 5589 5585 5582 5579 5575 5571 5568 5566 5564 5562 5559 5558 5556 5555 5555 5556 5558 5561 5563 5564 5567 5569 5573 5577 5581 5585 5588 5591 5595 5599 5604 5610 5615 5622 5629 5634 5638 5644 5649
5591 5588 5583 5579 5576 5572 5568 5564 5560 5556 5553 5551 5548 5545 5543 5540 5538 5537 5538 5540 5543 5546 5549 5552 5556 5560 5564 5567 5572 5576 5579 5582 5587 5592 5598 5604 5610 5617 5623 5629 5634 5640
5582 5578 5574 5570 5566 5562 5558 5553 5549 5544 5541 5537 5533 5529 5526 5523 5519 5518 5519 5520 5522 5526 5532 5536 5541 5546 5550 5553 5558 5563 5566 5570 5575 5580 5586 5592 5599 5606 5613 5619 5625 5631
5573 5569 5565 5561 5557 5552 5547 5542 5537 5532 5527 5523 5518 5514 5509 5506 5502 5500 5500 5500 5502 5505 5512 5518 5524 5530 5534 5539 5545 5550 5554 5558 5562 5568 5574 5580 5587 5595 5602 5609 5615 5622
5565 5561 5557 5552 5547 5541 5536 5531 5525 5519 5514 5509 5505 5501 5497 5494 5491 5488 5486 5486 5486 5488 5492 5499 5507 5514 5519 5524 5531 5537 5541 5545 5550 5555 5562 5569 5576 5584 5591 5598 5605 5612
5557 5553 5548 5542 5536 5530 5525 5519 5514 5508 5503 5499 5494 5490 5487 5485 5482 5479 5477 5476 5476 5476 5478 5482 5489 5497 5503 5509 5517 5523 5527 5532 5537 5543 5550 5557 5565 5573 5581 5588 5595 5602
5549 5543 5538 5532 5525 5519 5514 5510 5505 5500 5496 5491 5487 5482 5480 5477 5474 5471 5468 5467 5466 5467 5467 5469 5474 5481 5487 5494 5502 5509 5514 5518 5524 5531 5538 5545 5554 5563 5571 5578 5585 5592
5540 5533 5527 5521 5516 5511 5507 5503 5499 5495 5490 5486 5480 5476 5473 5470 5466 5463 5460 5458 5457 5457 5458 5459 5462 5467 5471 5477 5485 5493 5499 5504 5511 5519 5526 5534 5543 5552 5560 5568 5575 5583
5531 5524 5518 5513 5509 5505 5501 5498 5494 5489 5485 5480 5474 5469 5465 5462 5459 5456 5453 5451 5449 5448 5449 5449 5452 5456 5458 5461 5469 5477 5484 5490 5498 5506 5514 5522 5531 5541 5550 5558 5566 5574
5523 5517 5512 5507 5504 5500 5497 5493 5488 5483 5478 5473 5467 5462 5458 5455 5452 5449 5447 5444 5442 5440 5440 5440 5442 5445 5447 5449 5455 5462 5469 5477 5485 5493 5502 5511 5520 5530 5539 5548 5557 5565
5516 5511 5507 5504 5500 5496 5492 5487 5482 5476 5470 5465 5460 5455 5451 5447 5444 5441 5438 5437 5435 5432 5432 5431 5432 5435 5437 5440 5444 5449 5456 5463 5471 5480 5490 5501 5510 5520 5529 5539 5548 5557